sat.trackr.live / text

‹ back to catalog

2022-023C

NORAD 51948 · 2022-023C

PAYLOAD ACTIVE UNKNOWN

§ Identity

Operator
Country
PRC
Launch date
2022-03-05
Launch site
XICLF
Launch vehicle
Mass (kg)
RCS (m²)

External: N2YO · Heavens-Above · Gunter

§ Orbital elements

Epoch: 2026-05-25T02:42:57.733344Z

Period
94.86 min
Inclination
63.4960°
Eccentricity
0.0100653
Mean motion
15.18009454 rev/d
Perigee alt
442.5 km
Apogee alt
581.2 km
Semi-major
6,890.0 km
B*
6.9643e-4
RAAN
349.5398°
Arg perigee
350.1131°
Mean anomaly
9.7999°
Rev number
23,421

§ Raw data

2022-023C1 51948U 22023C   26145.11316821  .00016058  00000+0  69643-3 0  99972 51948  63.4960 349.5398 0100653 350.1131   9.7999 15.18009454234219

JSON: /api/v1/satellites/51948 · /tle

For live sub-satellite position, see the globe view (requires WebGL).

§ Visibility from observer

Set your observer location to see the next 7 days of passes ≥ 10°. The values pass through the URL so the page stays shareable.

No JS? Fill the form by hand. The geolocation button needs JavaScript.